Regional Weather Roundup
Issued by NWS

Home | Current Version | Previous Version | Text Only | Print | Product List | Glossary Off
Versions: 1 2 3 4 5 6 7 8 9 10 11 12 13 14 15 16 17 18 19 20 21 22 23 24 25 26 27 28 29 30 31 32 33 34 35 36 37 38 39 40 41 42 43 44 45 46 47 48 49 50

000
ASUS43 KMPX 222310
RWRMN
WEATHER ROUNDUP FOR MINNESOTA
NATIONAL WEATHER SERVICE TWIN CITIES/CHANHASSEN MN
500 PM CST WED NOV 22 2017


NOTE: "FAIR" INDICATES FEW OR NO CLOUDS BELOW 12,000 FEET WITH NO
SIGNIFICANT WEATHER AND/OR OBSTRUCTIONS TO VISIBILITY. N/A MEANS
CURRENT SKY AND/OR WEATHER CONDITIONS ARE NOT AVAILABLE.

MNZ060>063-068>070-230000-
   Twin Cities Metro

CITY           SKY/WX    TMP DP  RH WIND       PRES   REMARKS
TWIN CITIES    CLOUDY    29  15  56 SE10      30.07F WCI  20
ST PAUL        CLOUDY    29  15  56 SE10      30.09F WCI  20
CRYSTAL        CLOUDY    28  12  51 SE8       30.05F WCI  20
BLAINE         CLOUDY    28  16  59 S10       30.05F WCI  19
LAKEVILLE      CLOUDY    28  16  59 SE7       30.06F WCI  21
EDEN PRAIRIE   CLOUDY    30  14  51 SE10      30.04F WCI  21
SOUTH ST PAUL  MOCLDY    30  14  51 S9        30.07F WCI  22
LAKE ELMO      MOCLDY    30  18  59 SE6       30.09F WCI  24
$$
MNZ001>005-007-008-013>017-022>024-027-028-230000-
   Northwest Minnesota

CITY           SKY/WX    TMP DP  RH WIND       PRES   REMARKS
BEMIDJI        CLOUDY    20  16  84 S8        29.93R WCI  10
HALLOCK        CLOUDY    25  19  80 S7        29.96R WCI  17
ROSEAU         CLOUDY    21  18  86 S6        29.95S WCI  14
WARROAD        LGT SNOW  19  18  93 S3        29.95R
THIEF RVR FALL CLOUDY    23  17  78 SE6       29.96R WCI  16
CROOKSTON      CLOUDY    28  18  64 S8        29.94S WCI  20
FOSSTON        CLOUDY    21  16  79 S8        29.93R WCI  12
DETROIT LAKES  CLOUDY    28  18  64 S9        29.93R WCI  20
MOORHEAD       PTCLDY    28  14  54 S13G18    29.93R WCI  18
PARK RAPIDS    CLOUDY    22  17  81 S9        29.93F WCI  12
MAHNOMEN       CLOUDY    26  16  64 S8        29.91S WCI  18
$$
MNZ006-009>011-018-025>026-230000-
   North Central Minnesota

CITY           SKY/WX    TMP DP  RH WIND       PRES   REMARKS
BAUDETTE       CLOUDY    19  15  84 S8        29.95R WCI   9
FLAG ISLAND    CLOUDY    19  16  86 S13       29.94R WCI   7
INTL FALLS     CLOUDY    20  14  77 S3        29.97F
WASKISH        LGT SNOW  19  18  93 SE3       29.96R
BIG FORK       LGT SNOW  21  16  79 S7        29.96F WCI  13
LONGVILLE      FLURRIES  19  18  93 S7        29.96F WCI  10
GRAND RAPIDS   FLURRIES  20  17  88 S9        29.98F WCI   9
CRANE LAKE     CLOUDY    18  16  93 CALM      30.02R
ORR            CLOUDY    19  14  79 S3        29.96F
COOK           LGT SNOW  19  16  86 S3        29.98F
WALKER         CLOUDY    19  16  85 S8        29.93F WCI   9
$$
MNZ012-019>021-037-230000-
   Northeast Minnesota

CITY           SKY/WX    TMP DP  RH WIND       PRES   REMARKS
DULUTH         LGT SNOW  19  15  84 S12       30.00F FOG     WCI   7
ELY            CLOUDY    18  16  93 S5        29.98F WCI  11
HIBBING        CLOUDY    19  15  84 S5        29.99S WCI  12
EVELETH        FLURRIES  20  15  79 S6        30.01S WCI  12
DULUTH HARBOR  FLURRIES  25  18  74 SW10      30.07F WCI  15
TWO HARBORS    FLURRIES  25  16  68 SW7       30.01F WCI  17
SILVER BAY     LGT SNOW  23  18  80 SW6       30.00F WCI  16
GRAND MARAIS     N/A     26  18  71 W8        30.06S WCI  18
G MARAIS ARPRT LGT SNOW  18  10  73 S5        29.97F WCI  11
$$
MNZ029>031-032-039>041-046>048-054>057-064-230000-
   West Central Minnesota

CITY           SKY/WX    TMP DP  RH WIND       PRES   REMARKS
FERGUS FALLS   CLOUDY    28  16  59 SE12      29.94F WCI  18
WHEATON        CLEAR     32  16  51 SE10      29.92F WCI  24
MORRIS         CLEAR     30  16  55 SE9       29.93R WCI  22
ALEXANDRIA     CLOUDY    28  15  58 SE14      29.95F WCI  17
ELBOW LAKE     FAIR      29  15  56 SE15      29.92F HAZE    WCI  18
WADENA         CLOUDY    25  14  63 S13       29.94S WCI  13
GLENWOOD       CLOUDY    28  16  59 SE13      29.95F WCI  18
APPLETON         N/A     36  16  44 S5        29.94R
BENSON         CLOUDY    34  16  47 S10       29.95F WCI  26
ORTONVILLE     CLEAR     34  18  51 N6        29.92R WCI  29
MADISON        CLEAR     37  19  48 S10       29.92F
WILLMAR        CLOUDY    34  19  55 SE9       29.97F WCI  26
$$
MNZ033>034-036-042>043-049>051-058-059-230000-
   Central Minnesota

CITY           SKY/WX    TMP DP  RH WIND       PRES   REMARKS
ST CLOUD       CLOUDY    26  14  60 SE14      30.03R WCI  14
SAUK CENTRE    CLOUDY    27  15  59 SE12G17   29.98F WCI  17
PAYNESVILLE    CLOUDY    30  17  59 SE9G16    30.01R WCI  21
AITKIN         RAIN      19  18  93 S8        29.98F WCI   9
PINE RIVER     LGT SNOW  18  16  93 S7        29.99F WCI   8
BRAINERD       LGT SNOW  22  17  81 S10       29.99F WCI  11
STAPLES        CLOUDY    23  12  63 S9        29.96F WCI  13
LITTLE FALLS   CLOUDY    27   9  46 SE9       30.01F WCI  17
LITCHFIELD     CLOUDY    30  18  59 SE8       30.00F WCI  23
BUFFALO        CLOUDY    28  14  57 SE7       30.05S WCI  20
MAPLE LAKE     CLOUDY    28  17  62 SE7       30.04S WCI  21
HUTCHINSON     CLOUDY    31  17  56 SE9       30.01F WCI  23
$$
MNZ037-044-045-052-053-230000-
   East Central Minnesota

CITY           SKY/WX    TMP DP  RH WIND       PRES   REMARKS
PRINCETON      CLOUDY    27  16  63 SE6       30.04S WCI  20
MORA           LGT SNOW  21  18  86 S7        30.07F WCI  13
CAMBRIDGE      FLURRIES  27  16  63 SE3       30.06F
RUSH CITY      LGT SNOW  23  18  80 SE7       30.06F WCI  15
MOOSE LAKE     LGT SNOW  21  19  93 S5        30.01F WCI  15
HINCKLEY       LGT SNOW  23  21  93 S7        30.06F WCI  15
CLOQUET        LGT SNOW  19  16  86 S5        30.01F WCI  13
MCGREGOR       CLOUDY    21  19  93 S9        30.01F WCI  11
$$
MNZ071>073-080-081-089-090-097-098-230000-
   Southwest Minnesota

CITY           SKY/WX    TMP DP  RH WIND       PRES   REMARKS
MONTEVIDEO     PTCLDY    36  18  48 SW14      29.93F
GRANITE FALLS  CLOUDY    37  18  47 S12       29.97F
CANBY          PTCLDY    36  19  50 SW15G26   29.90F
MARSHALL       CLOUDY    34  16  47 SW16G22   29.94F WCI  24
REDWOOD FALLS  CLOUDY    36  14  40 S13       29.99F
OLIVIA         CLOUDY    34  18  51 S9        29.96F WCI  26
PIPESTONE      CLEAR     32  16  51 SW13G22   29.94F WCI  22
WINDOM           N/A     34  16  47 S15G21    29.99F WCI  24
WORTHINGTON    CLOUDY    32  16  51 S21       29.99F WCI  20
JACKSON        CLOUDY    34  16  47 SW21      30.01F WCI  22
SLAYTON        CLOUDY    31  10  41 S17       29.95F WCI  20
$$
MNZ065>067-074>077-082>085-091>093-230000-
   South Central Minnesota

CITY           SKY/WX    TMP DP  RH WIND       PRES   REMARKS
MANKATO        CLOUDY    32  17  54 S13       30.05F WCI  22
NEW ULM        CLOUDY    34  14  44 CALM      30.02F
ST JAMES       CLOUDY    36  16  44 S15       30.03S
FAIRMONT       CLOUDY    34  15  46 S15       30.04  WCI  24
GLENCOE        CLOUDY    31  16  54 SE8       30.02F WCI  24
FARIBAULT      CLOUDY    30  16  55 SE12      30.06F WCI  21
OWATONNA       CLOUDY    30  16  55 S8        30.07F WCI  23
WASECA         CLOUDY    32  18  55 S14       30.06F WCI  22
ALBERT LEA     CLOUDY    30  12  47 S9        30.07F WCI  22
$$
MNZ078>079-086>088-094>096-230000-
   Southeast Minnesota

CITY           SKY/WX    TMP DP  RH WIND       PRES   REMARKS
ROCHESTER      CLOUDY    29  16  58 S10       30.09F WCI  20
RED WING       CLOUDY    30  12  47 S6        30.11F WCI  24
STANTON        CLOUDY    31  16  53 S7        30.07F WCI  24
DODGE CENTER   CLOUDY    30  16  55 S12       30.07F WCI  21
WINONA         CLOUDY    32  18  55 S6        30.15F WCI  26
AUSTIN         CLOUDY    30  16  55 S12       30.08F WCI  21
PRESTON        CLOUDY    28  14  55 S9        30.11F WCI  20
$$
ABBREVIATIONS USED IN REMARKS
   TC - TEMPERATURES IN CELSIUS
  WCI - WIND CHILL INDEX
   HX - HEAT INDEX
  VSB - VISIBILITY
$$




USA.gov is the U.S. government's official web portal to all federal, state and local government web resources and services.